Forside
METAR-TAF:

METAR-TAF

Lufthavne :

Red Wing Regional Airport

Red Wing, Minnesota, USA

Breddekreds: 44-35-25N, længdekreds: 092-29-10W, højde: 239 m

Aktuelle vejr

Denne rapport blev lavet for 8 timer og 31 minutter siden, kl. 00:35 UTC
Vind 5 kt fra vest
Temperatur 24°C
Fugtighed 61%
Tryk 1019 hPa
Sigt: 11.3 km
skyfri

METAR: KRGK 310035Z AUTO 27005KT 7SM CLR 24/16 A3009 RMK AO2

Tid: 04:06 (09:06 UTC)


TAF: fraværende

Vejrobservationer og prognoser fra mere end 4000 lufthavne (METAR og TAF).

De gule og røde prikker repræsenterer de meteorologiske stationer.

Flyt musen over at se navnet på stationen.

Så klik over at se vejr observationer og prognoser.

At skifte det kort: Klik på de grønne knapper med et sort kors for at zoome ind; på den grønne knap med en bindestreg for at zoome ud; eller på de grønne pile for tilstødende kort.


METAR-TAF: